Date String (YYYY-MM-DD hh:mm:ss) UTC,Instrument flags,Ambient pressure (hPa),Sample flow (lpm),Bypass flow (lpm),Sample temperature (°C),Ambient temperature (°C),ASC tube jacket temperature (°C),LED temperature (°C),Box temperature (°C),Sample RH (%),Span deviation,Mass concentration (μg/m³),Mass concentration (μg/m³),Mass concentration (μg/m³)
DateTimeUTC,F1_M11,P_M11,Q1_M11,Q2_M11,T1_M11,T2_M11,T3_M11,T4_M11,T5_M11,U1_M11,ZSPAN_M11,X0_M11,X2_M11,X1_M11
2022-01-13 05:00:00,,0831.2,5.00,0.00,26.3,25.5,00.0,35.3,28.0,09.9,0000.0,0005.47,0000.03,0000.00
2022-01-13 05:01:00,,0831.2,5.00,0.00,26.3,25.5,00.0,35.3,28.0,10.0,0000.0,0006.75,0000.03,0000.00
2022-01-13 05:02:00,,0831.2,5.00,0.00,26.3,25.5,00.0,35.3,28.1,10.6,0000.0,0006.81,0000.03,0000.00
2022-01-13 05:03:00,,0831.2,5.00,0.00,26.3,25.5,00.0,35.3,28.1,10.7,0000.0,0007.78,0000.03,0000.00
2022-01-13 05:04:00,,0831.2,5.01,0.00,26.3,25.5,00.0,35.3,28.0,10.7,0000.0,0007.78,0000.03,0000.00
2022-01-13 05:05:00,,0831.2,4.99,0.00,26.3,25.5,00.0,35.3,28.0,10.7,0000.0,0007.75,0000.02,0000.00
2022-01-13 05:06:00,,0831.2,5.01,0.00,26.3,25.5,00.0,35.3,28.1,10.5,0000.0,0007.65,0000.01,0000.00
2022-01-13 05:07:00,,0831.3,5.00,0.00,26.3,25.5,00.0,35.3,28.1,10.7,0000.0,0007.67,0000.01,0000.00
2022-01-13 05:08:00,,0831.3,4.99,0.00,26.3,25.5,00.0,35.3,28.1,10.6,0000.0,0007.36,0000.02,0000.00
2022-01-13 05:09:00,,0831.3,5.00,0.00,26.3,25.5,00.0,35.3,28.1,10.6,0000.0,0007.09,0000.03,0000.01
2022-01-13 05:10:00,,0831.4,5.01,0.00,26.3,25.5,00.0,35.3,28.1,10.6,0000.0,0005.19,0000.03,0000.01
2022-01-13 05:11:00,,0831.3,4.99,0.00,26.3,25.5,00.0,35.3,28.1,10.7,0000.0,0004.27,0000.03,0000.01
2022-01-13 05:12:00,,0831.3,5.01,0.00,26.3,25.5,00.0,35.3,28.1,10.7,0000.0,0002.94,0000.04,0000.01
2022-01-13 05:13:00,,0831.2,5.00,0.00,26.3,25.5,00.0,35.3,28.1,10.7,0000.0,0002.75,0000.05,0000.01
2022-01-13 05:14:00,,0831.2,5.00,0.00,26.3,25.5,00.0,35.3,28.1,10.6,0000.0,0001.51,0000.05,0000.01
2022-01-13 05:15:00,,0831.1,5.00,0.00,26.3,25.5,00.0,35.3,28.1,10.6,0000.0,0001.53,0000.06,0000.01
2022-01-13 05:16:00,,0831.1,5.00,0.00,26.3,25.5,00.0,35.3,28.1,10.5,0000.0,0001.53,0000.06,0000.01
2022-01-13 05:17:00,,0831.2,5.00,0.00,26.3,25.5,00.0,35.3,28.1,10.3,0000.0,0000.92,0000.06,0000.01
2022-01-13 05:18:00,,0831.3,5.01,0.00,26.3,25.5,00.0,35.3,28.0,10.2,0000.0,0000.62,0000.06,0000.01
2022-01-13 05:19:00,,0831.4,4.99,0.00,26.3,25.4,00.0,35.3,28.0,10.2,0000.0,0001.03,0000.07,0000.01
2022-01-13 05:20:00,,0831.4,5.01,0.00,26.3,25.5,00.0,35.3,28.0,10.5,0000.0,0001.71,0000.06,0000.00
2022-01-13 05:21:00,,0831.4,4.99,0.00,26.3,25.5,00.0,35.3,28.0,10.5,0000.0,0001.47,0000.06,0000.00
2022-01-13 05:22:00,,0831.3,5.01,0.00,26.3,25.5,00.0,35.3,28.0,10.3,0000.0,0001.47,0000.06,0000.00
2022-01-13 05:23:00,,0831.4,5.01,0.00,26.3,25.5,00.0,35.3,28.0,10.1,0000.0,0001.45,0000.05,0000.00
2022-01-13 05:24:00,,0831.4,4.98,0.00,26.3,25.5,00.0,35.3,28.0,10.3,0000.0,0001.44,0000.04,0000.00
2022-01-13 05:25:00,,0831.4,5.00,0.00,26.3,25.5,00.0,35.3,28.1,10.3,0000.0,0001.43,0000.04,0000.00
2022-01-13 05:26:00,,0831.4,4.99,0.00,26.3,25.5,00.0,35.3,28.1,10.1,0000.0,0001.40,0000.03,0000.00
2022-01-13 05:27:00,,0831.4,5.00,0.00,26.3,25.5,00.0,35.3,28.1,10.0,0000.0,0001.40,0000.03,0000.00
2022-01-13 05:28:00,,0831.4,5.01,0.00,26.3,25.5,00.0,35.3,28.0,10.0,0000.0,0001.45,0000.04,0000.00
2022-01-13 05:29:00,,0831.4,5.00,0.00,26.3,25.5,00.0,35.3,28.1,10.1,0000.0,0001.50,0000.05,0000.00
2022-01-13 05:30:00,,0831.3,5.00,0.00,26.3,25.5,00.0,35.3,28.1,10.3,0000.0,0001.09,0000.03,0000.00
2022-01-13 05:31:00,,0831.4,5.01,0.00,26.3,25.5,00.0,35.3,28.1,10.2,0000.0,0000.20,0000.04,0000.00
2022-01-13 05:32:00,,0831.4,5.00,0.00,26.3,25.5,00.0,35.3,28.1,10.2,0000.0,0000.39,0000.04,0000.00
2022-01-13 05:33:00,,0831.5,5.00,0.00,26.3,25.5,00.0,35.3,28.1,10.2,0000.0,0000.39,0000.04,0000.00
2022-01-13 05:34:00,,0831.5,5.00,0.00,26.3,25.5,00.0,35.3,28.1,10.3,0000.0,0000.39,0000.04,0000.00
2022-01-13 05:35:00,,0831.4,5.01,0.00,26.3,25.5,00.0,35.3,28.1,10.3,0000.0,0000.39,0000.04,0000.00
2022-01-13 05:36:00,,0831.4,5.00,0.00,26.3,25.5,00.0,35.3,28.1,10.4,0000.0,0000.39,0000.04,0000.00
2022-01-13 05:37:00,,0831.4,4.99,0.00,26.3,25.5,00.0,35.3,28.1,10.3,0000.0,0000.39,0000.04,0000.00
2022-01-13 05:38:00,,0831.4,5.01,0.00,26.3,25.5,00.0,35.3,28.1,10.4,0000.0,0000.39,0000.04,0000.00
2022-01-13 05:39:00,,0831.4,4.99,0.00,26.3,25.5,00.0,35.3,28.1,10.5,0000.0,0000.34,0000.03,0000.00
2022-01-13 05:40:00,,0831.5,5.01,0.00,26.3,25.5,00.0,35.3,28.1,10.5,0000.0,0000.24,0000.01,0000.00
2022-01-13 05:41:00,,0831.6,5.01,0.00,26.3,25.5,00.0,35.3,28.1,10.4,0000.0,0000.24,0000.01,0000.00
2022-01-13 05:42:00,,0831.6,4.99,0.00,26.3,25.4,00.0,35.3,28.1,10.5,0000.0,0000.29,0000.01,0000.00
2022-01-13 05:43:00,,0831.6,5.01,0.00,26.3,25.4,00.0,35.3,28.1,10.5,0000.0,0000.23,0000.01,0000.00
2022-01-13 05:44:00,,0831.6,4.99,0.00,26.3,25.4,00.0,35.3,28.1,10.5,0000.0,0000.34,0000.01,0000.00
2022-01-13 05:45:00,,0831.6,5.01,0.00,26.3,25.5,00.0,35.3,28.0,10.5,0000.0,0000.89,0000.02,0000.00
2022-01-13 05:46:00,,0831.6,4.99,0.00,26.3,25.5,00.0,35.3,28.0,10.5,0000.0,0001.41,0000.02,0000.00
2022-01-13 05:47:00,,0831.6,5.00,0.00,26.3,25.5,00.0,35.3,28.1,10.4,0000.0,0001.46,0000.03,0000.00
2022-01-13 05:48:00,,0831.6,4.99,0.00,26.3,25.5,00.0,35.3,28.1,10.3,0000.0,0001.53,0000.03,0000.00
2022-01-13 05:49:00,,0831.6,5.00,0.00,26.3,25.5,00.0,35.3,28.1,10.3,0000.0,0001.57,0000.05,0000.01
2022-01-13 05:50:00,,0831.5,5.00,0.00,26.3,25.5,00.0,35.3,28.1,10.3,0000.0,0001.58,0000.05,0000.01
2022-01-13 05:51:00,,0831.6,5.01,0.00,26.3,25.5,00.0,35.3,28.1,10.3,0000.0,0001.58,0000.05,0000.01
2022-01-13 05:52:00,,0831.6,5.01,0.00,26.3,25.5,00.0,35.3,28.1,10.3,0000.0,0001.58,0000.05,0000.01
2022-01-13 05:53:00,,0831.6,4.99,0.00,26.3,25.5,00.0,35.3,28.1,10.3,0000.0,0001.47,0000.05,0000.01
2022-01-13 05:54:00,,0831.6,5.02,0.00,26.3,25.5,00.0,35.3,28.1,10.3,0000.0,0001.34,0000.05,0000.01
2022-01-13 05:55:00,,0831.6,4.99,0.00,26.3,25.5,00.0,35.3,28.1,10.3,0000.0,0001.29,0000.04,0000.00
2022-01-13 05:56:00,,0831.6,5.00,0.00,26.3,25.5,00.0,35.3,28.1,10.3,0000.0,0001.06,0000.04,0000.00
2022-01-13 05:57:00,,0831.6,5.01,0.00,26.3,25.5,00.0,35.3,28.1,10.3,0000.0,0001.70,0000.04,0000.00
2022-01-13 05:58:00,,0831.7,4.99,0.00,26.3,25.5,00.0,35.3,28.1,10.3,0000.0,0001.67,0000.03,0000.00
2022-01-13 05:59:00,,0831.7,5.01,0.00,26.3,25.5,00.0,35.3,28.1,10.2,0000.0,0001.61,0000.03,0000.01
